Погода в Массауа

Эритрея     15°37′09″N   39°26′58″E
темп.,
°C
ветер,
м/с
пор.,
м/с
влажн.,
%
обл.,
%
осадки,
мм/ч
давл.,
гПа
погр.,
м
10 августа, ср
ср1000:00+32ююв2259100 0.0 1004170
03:00+32вюв1262100 0.7 100371
06:00+30ю226479 1.3 100466
09:00+31юв2255100 1.7 1005144
12:00+35ссв2144100 0.0 1003642
15:00+35св4345100 0.0 1002736
18:00+34св334589 0.0 1002484
21:00+34сз1150100 0.0 1003232
11 августа, чт
чт1100:00+33с005567 0.0 100391
03:00+32вюв336198 0.1 1001129
06:00+28зюз2369100 2.9 100483
09:00+32ююв115394 6.4 1005313
12:00+35в214317 0.4 1004893
15:00+36всв43435 0.4 1002943
18:00+34в33497 0.0 1002499
21:00+33всв2254100 0.0 1003251
12 августа, пт
пт1200:00+33вюв1157100 0.0 1004167
03:00+32в126057 0.0 1003111
06:00+31с0163100 0.0 100468
09:00+33з2352100 0.8 1006575
12:00+32сз2250100 3.3 1005335
15:00+34св3347100 3.9 1004930
18:00+32ссв3357100 0.0 1004537
21:00+32всв2260100 0.0 1006358
13 августа, сб
сб1300:00+32з6956100 0.1 1005594
03:00+33юз3446100 0.1 100472
06:00+31юз4749100 0.2 1003150
09:00+32зсз2347100 1.4 1005292
12:00+32в224754 2.3 1005264
15:00+34св4445100 2.3 1003759
18:00+33ссв2251100 0.0 1003467
21:00+32св2258100 0.0 1005241
14 августа, вс
вс1400:00+32з336089 0.2 1005196
03:00+28з2265100 2.7 100353
06:00+27зсз2373100 5.3 100592
09:00+30юв1157100 8.6 1006176
12:00+32в2248100 0.1 1005336
15:00+34в3244100 0.1 1003630
18:00+32вюв2350100 0.0 1004318
21:00+31юв2358100 0.0 1005162